Regional Weather Roundup
Issued by NWS

Home | Current Version | Previous Version | Graphics & Text | Print | Product List | Glossary On
Versions: 1 2 3 4 5 6 7 8 9 10 11 12 13 14 15 16 17 18 19 20 21 22 23 24 25 26 27 28 29 30 31 32 33 34 35 36 37 38 39 40 41 42 43 44 45 46 47 48 49 50
000
ASUS44 KMEG 051600
RWRTN
TENNESSEE HOURLY STATE WEATHER ROUNDUP
NATIONAL WEATHER SERVICE MEMPHIS TN
1100 AM CDT SAT SEP 05 2015

TNZ002-004-019-021-049-052-054-088>092-051700-
WEST TENNESSEE

CITY           SKY/WX    TMP DP  RH WIND       PRES   REMARKS
MEMPHIS INTL   SUNNY     91  70  49 CALM      30.08S HX  96
NWS MEMPHIS      N/A     90 N/A N/A MISG        N/A
JACKSON        SUNNY     88  72  58 CALM      30.10S HX  94
DYERSBURG      SUNNY     90  73  58 SE5       30.10S HX  98
UNION CITY     SUNNY     90  70  51 E5        30.09S HX  95
PARIS          SUNNY     88  68  51 E6        30.12S HX  91
LEXINGTON      SUNNY     88  72  58 CALM      30.09S HX  94
$$

TNZ008-025-027-028-033-062-065-066-051700-
NORTH MIDDLE TENNESSEE

CITY           SKY/WX    TMP DP  RH WIND       PRES   REMARKS
NASHVILLE      MOSUNNY   88  66  48 S3        30.13R HX  90
CLARKSVILLE    SUNNY     89  67  47 SE5       30.12S HX  92
COOKEVILLE     SUNNY     86  70  58 VRB6      30.14F HX  90
CROSSVILLE     SUNNY     82  65  56 VRB3      30.20S
$$

TNZ061-075-076-078-094-096-097-051700-
SOUTH MIDDLE TENNESSEE

CITY           SKY/WX    TMP DP  RH WIND       PRES   REMARKS
FAYETTEVILLE   SUNNY     82  70  65 CALM      30.14R
TULLAHOMA      SUNNY     82  68  61 SE8       30.16S
WINCHESTER     SUNNY     82  70  65 SE9       30.14S
MCMINNVILLE    SUNNY     86  72  62 SE6       30.15S HX  92
COLUMBIA       SUNNY     88  73  62 CALM      30.10S HX  96
SHELBYVILLE    SUNNY     86  72  62 E6        30.14S HX  92
$$

TNZ017-018-042-046-047-051700-
NORTHEAST TENNESSEE

CITY           SKY/WX    TMP DP  RH WIND       PRES   REMARKS
TRI CITIES     MOSUNNY   81  64  56 VRB5      30.21S
ELIZABETHTON   SUNNY     79  64  61 E8        30.22S
$$

TNZ012-013-036-069-073-074-051700-
CENTRAL EAST TENNESSEE

CITY           SKY/WX    TMP DP  RH WIND       PRES   REMARKS
KNOXVILLE      SUNNY     79  62  56 E3        30.16R
OAK RIDGE      SUNNY     84  67  56 VRB3      30.17S
GATLINBURG     SUNNY     84  63  48 CALM      30.15S
$$

TNZ083-085-099-051700-
SOUTHEAST TENNESSEE

CITY           SKY/WX    TMP DP  RH WIND       PRES   REMARKS
CHATTANOOGA    SUNNY     84  67  56 CALM      30.15S
$$

SKY/WX REPORTED AS FAIR MEANS FEW OR NO CLOUDS BELOW
12 THOUSAND FEET.



USA.gov is the U.S. government's official web portal to all federal, state and local government web resources and services.